Glendive, MT

4:26 PM MDT on June 22, 2017 (GMT -0600)
Dawson Community

Weather History for KGDV - February, 2015

Change the Weather History Date:

Tuesday, February 17, 2015

  Actual Average Record
Temperature  
Mean Temperature 4 °F -  
Max Temperature 14 °F 31 °F 57 °F (2017)
Min Temperature -5 °F 13 °F -5 °F (2000)
Degree Days  
Heating Degree Days 60    
Moisture  
Dew Point -3 °F    
Average Humidity 72    
Maximum Humidity 92    
Minimum Humidity 57    
Precipitation  
Precipitation 0.00 in - - ()
Sea Level Pressure  
Sea Level Pressure 30.21 in    
Wind  
Wind Speed 10 mph (WNW)    
Max Wind Speed 20 mph    
Max Gust Speed 28 mph    
Visibility 10 miles    
Events      
Averages and records for this station are not official NWS values.
T = Trace of Precipitation, MM = Missing Value Source: NWS Daily Summary

Daily Weather History Graph

Daily Weather History Graph

Search for Another Location

Airport or City:

Trip Planner

Search our weather history database for the weather conditions in past years. The results will help you decide how hot, cold, wet, or windy it might be!

Date:

Astronomy

Feb. 17, 2015 Rise Set
Actual Time 7:00 AM MST 5:26 PM MST
Civil Twilight 6:29 AM MST 5:57 PM MST
Nautical Twilight 5:54 AM MST 6:33 PM MST
Astronomical Twilight 5:18 AM MST 7:08 PM MST
Moon 5:50 AM MST (2/17) 4:16 PM MST (2/17)
Length of Visible Light 11h 27m
Length of Day
10h 25m
Waning Crescent, 2% of the Moon is Illuminated
Feb 17
Waning Crescent
Feb 18
New
Feb 25
First Quarter
Mar 5
Full
Mar 13
Last Quarter

Hourly Weather History & Observations

Time (MST) Temp. Windchill Dew Point Humidity Pressure Visibility Wind Dir Wind Speed Gust Speed Precip Events Conditions
12:15 AM 1.4 °F -11.3 °F -4.0 °F 78% 30.25 in 10.0 mi NW 6.9 mph - N/A   Clear
12:35 AM 1.4 °F -15.3 °F -2.2 °F 85% 30.25 in 10.0 mi NNW 11.5 mph - N/A   Clear
12:55 AM -0.4 °F -13.4 °F -5.8 °F 78% 30.25 in 10.0 mi WNW 6.9 mph - N/A   Clear
1:15 AM -0.4 °F -15.7 °F -2.2 °F 92% 30.25 in 10.0 mi NW 9.2 mph - N/A   Clear
1:35 AM 1.4 °F -15.3 °F -2.2 °F 85% 30.26 in 10.0 mi NW 11.5 mph - N/A   Clear
1:55 AM -0.4 °F -12.0 °F -5.8 °F 78% 30.25 in 10.0 mi NW 5.8 mph - N/A   Clear
2:15 AM -2.2 °F -14.2 °F -9.4 °F 71% 30.25 in 10.0 mi WNW 5.8 mph - N/A   Clear
2:35 AM -4.0 °F -19.0 °F -9.4 °F 78% 30.25 in 10.0 mi West 8.1 mph - N/A   Clear
2:55 AM -2.2 °F -16.8 °F -5.8 °F 85% 30.25 in 10.0 mi West 8.1 mph - N/A   Clear
3:15 AM -2.2 °F -16.8 °F -7.6 °F 78% 30.24 in 10.0 mi West 8.1 mph - N/A   Clear
3:35 AM -4.0 °F -20.2 °F -9.4 °F 78% 30.24 in 10.0 mi West 9.2 mph - N/A   Clear
3:55 AM -4.0 °F -20.2 °F -7.6 °F 85% 30.24 in 10.0 mi West 9.2 mph - N/A   Clear
4:15 AM -2.2 °F -18.9 °F -5.8 °F 85% 30.23 in 10.0 mi West 10.4 mph - N/A   Clear
4:35 AM -2.2 °F -18.9 °F -7.6 °F 78% 30.24 in 10.0 mi WNW 10.4 mph - N/A   Clear
4:55 AM -2.2 °F -19.9 °F -5.8 °F 85% 30.25 in 10.0 mi WNW 11.5 mph - N/A   Clear
5:15 AM -2.2 °F -18.0 °F -7.6 °F 78% 30.26 in 10.0 mi West 9.2 mph - N/A   Clear
5:35 AM -2.2 °F -16.8 °F -7.6 °F 78% 30.26 in 10.0 mi West 8.1 mph - N/A   Clear
5:55 AM -5.8 °F -22.4 °F -11.2 °F 77% 30.26 in 10.0 mi West 9.2 mph - N/A   Clear
6:15 AM -2.2 °F -18.0 °F -5.8 °F 85% 30.25 in 10.0 mi West 9.2 mph - N/A   Clear
6:35 AM -4.0 °F -19.0 °F -9.4 °F 78% 30.25 in 10.0 mi West 8.1 mph - N/A   Clear
6:55 AM -4.0 °F -19.0 °F -7.6 °F 85% 30.24 in 10.0 mi West 8.1 mph - N/A   Clear
7:15 AM -2.2 °F -16.8 °F -7.6 °F 78% 30.24 in 10.0 mi West 8.1 mph - N/A   Clear
7:35 AM -0.4 °F -13.4 °F -2.2 °F 92% 30.25 in 10.0 mi West 6.9 mph - N/A   Clear
7:55 AM 1.4 °F -13.5 °F -4.0 °F 78% 30.24 in 10.0 mi WNW 9.2 mph - N/A   Clear
8:15 AM 1.4 °F -15.3 °F -2.2 °F 85% 30.24 in 10.0 mi WNW 11.5 mph - N/A   Clear
8:35 AM 3.2 °F -13.9 °F -2.2 °F 78% 30.24 in 10.0 mi WNW 12.7 mph 17.3 mph N/A   Clear
8:55 AM 3.2 °F -14.6 °F -2.2 °F 78% 30.24 in 10.0 mi West 13.8 mph - N/A   Clear
9:15 AM 3.2 °F -15.9 °F -2.2 °F 78% 30.24 in 10.0 mi West 16.1 mph - N/A   Clear
9:35 AM 5.0 °F -13.6 °F -2.2 °F 72% 30.24 in 10.0 mi WNW 16.1 mph 20.7 mph N/A   Clear
9:55 AM 6.8 °F -10.7 °F -2.2 °F 67% 30.24 in 10.0 mi NW 15.0 mph 20.7 mph N/A   Clear
10:15 AM 6.8 °F -10.7 °F -2.2 °F 67% 30.24 in 10.0 mi WNW 15.0 mph 20.7 mph N/A   Clear
10:35 AM 8.6 °F -9.5 °F -0.4 °F 67% 30.24 in 10.0 mi WNW 17.3 mph - N/A   Clear
10:55 AM 8.6 °F -9.5 °F -2.2 °F 62% 30.23 in 10.0 mi WNW 17.3 mph 21.9 mph N/A   Clear
11:15 AM 8.6 °F -7.7 °F -0.4 °F 67% 30.24 in 10.0 mi NW 13.8 mph - N/A   Clear
11:35 AM 8.6 °F -8.9 °F -0.4 °F 67% 30.23 in 10.0 mi WNW 16.1 mph - N/A   Clear
11:55 AM 10.4 °F -7.2 °F -0.4 °F 62% 30.23 in 10.0 mi WNW 17.3 mph 21.9 mph N/A   Clear
12:15 PM 10.4 °F -7.7 °F 1.4 °F 67% 30.21 in 10.0 mi WNW 18.4 mph 21.9 mph N/A   Clear
12:35 PM 10.4 °F -6.0 °F 1.4 °F 67% 30.21 in 10.0 mi WNW 15.0 mph 21.9 mph N/A   Clear
12:55 PM 12.2 °F -5.8 °F 1.4 °F 62% 30.20 in 10.0 mi WNW 19.6 mph 27.6 mph N/A   Clear
1:15 PM 12.2 °F -5.3 °F -0.4 °F 57% 30.19 in 10.0 mi WNW 18.4 mph 25.3 mph N/A   Clear
1:35 PM 12.2 °F -5.3 °F 1.4 °F 62% 30.19 in 10.0 mi WNW 18.4 mph 26.5 mph N/A   Clear
1:55 PM 12.2 °F -4.3 °F 1.4 °F 62% 30.19 in 10.0 mi WNW 16.1 mph 24.2 mph N/A   Clear
2:15 PM 12.2 °F -5.3 °F 1.4 °F 62% 30.19 in 10.0 mi WNW 18.4 mph - N/A   Clear
2:35 PM 14.0 °F -2.5 °F 1.4 °F 57% 30.18 in 10.0 mi WNW 17.3 mph 21.9 mph N/A   Clear
2:55 PM 14.0 °F -3.0 °F 1.4 °F 57% 30.17 in 10.0 mi WNW 18.4 mph 24.2 mph N/A   Clear
3:15 PM 14.0 °F -3.0 °F 1.4 °F 57% 30.17 in 10.0 mi West 18.4 mph 27.6 mph N/A   Clear
3:35 PM 14.0 °F -1.4 °F 1.4 °F 57% 30.17 in 10.0 mi WNW 15.0 mph 24.2 mph N/A   Clear
3:55 PM 12.2 °F -5.3 °F 1.4 °F 62% 30.17 in 10.0 mi West 18.4 mph 21.9 mph N/A   Clear
4:15 PM 12.2 °F -4.8 °F 1.4 °F 62% 30.16 in 10.0 mi WNW 17.3 mph 20.7 mph N/A   Clear
4:35 PM 12.2 °F -3.1 °F 1.4 °F 62% 30.15 in 10.0 mi WNW 13.8 mph - N/A   Clear
4:55 PM 12.2 °F -1.0 °F 1.4 °F 62% 30.15 in 10.0 mi WNW 10.4 mph - N/A   Clear
5:15 PM 12.2 °F -2.5 °F 1.4 °F 62% 30.15 in 10.0 mi WNW 12.7 mph - N/A   Clear
5:35 PM 10.4 °F -3.3 °F -0.4 °F 62% 30.16 in 10.0 mi WNW 10.4 mph - N/A   Clear
5:55 PM 10.4 °F -3.3 °F 1.4 °F 67% 30.16 in 10.0 mi West 10.4 mph - N/A   Clear
6:15 PM 10.4 °F -4.8 °F 1.4 °F 67% 30.17 in 10.0 mi WNW 12.7 mph 17.3 mph N/A   Clear
6:35 PM 12.2 °F -2.5 °F -0.4 °F 57% 30.17 in 10.0 mi WNW 12.7 mph - N/A   Clear
6:55 PM 10.4 °F -3.3 °F -0.4 °F 62% 30.17 in 10.0 mi NW 10.4 mph - N/A   Clear
7:15 PM 10.4 °F -1.5 °F -0.4 °F 62% 30.17 in 10.0 mi NNW 8.1 mph - N/A   Clear
7:35 PM 8.6 °F -3.7 °F -0.4 °F 67% 30.17 in 10.0 mi NNW 8.1 mph - N/A   Clear
7:55 PM 8.6 °F -2.6 °F -0.4 °F 67% 30.17 in 10.0 mi NNW 6.9 mph - N/A   Clear
8:15 PM 6.8 °F -2.0 °F -2.2 °F 67% 30.18 in 10.0 mi NW 4.6 mph - N/A   Clear
8:35 PM 6.8 °F -4.8 °F -0.4 °F 72% 30.18 in 10.0 mi WNW 6.9 mph - N/A   Clear
8:55 PM 6.8 °F -7.8 °F -2.2 °F 67% 30.18 in 10.0 mi NW 10.4 mph - N/A   Clear
9:15 PM 5.0 °F -8.1 °F -2.2 °F 72% 30.18 in 10.0 mi NW 8.1 mph - N/A   Clear
9:35 PM 5.0 °F - -2.2 °F 72% 30.18 in 10.0 mi Calm Calm - N/A   Clear
9:55 PM 5.0 °F -5.6 °F -0.4 °F 78% 30.19 in 10.0 mi NW 5.8 mph - N/A   Clear
10:15 PM 3.2 °F -10.3 °F -5.8 °F 66% 30.18 in 10.0 mi NW 8.1 mph - N/A   Clear
10:35 PM 1.4 °F -13.5 °F -2.2 °F 85% 30.19 in 10.0 mi NNW 9.2 mph - N/A   Clear
10:55 PM 1.4 °F -8.3 °F -4.0 °F 78% 30.19 in 10.0 mi NNW 4.6 mph - N/A   Clear
11:15 PM 1.4 °F -11.3 °F -5.8 °F 72% 30.18 in 10.0 mi NW 6.9 mph - N/A   Clear
11:35 PM -2.2 °F -14.2 °F -9.4 °F 71% 30.19 in 10.0 mi West 5.8 mph - N/A   Clear
11:55 PM -0.4 °F -13.4 °F -5.8 °F 78% 30.19 in 10.0 mi West 6.9 mph - N/A   Clear